This is the latest recevied weather packets stored in our database for station/object W0AVQ. If no packets are shown the sender has not sent any weather packets the latest 10 day(s).
| Time | Temp. | Humidity | Pressure | Rain* | Wind** | Luminosity | Snow |
|---|---|---|---|---|---|---|---|
| 1777563410 | 16.11° C | 48% | 1020.3 hPa | 0 mm | - | 649 W/m² | - |
| 1777563105 | 16.11° C | 50% | 1020.6 hPa | 0 mm | - | 603 W/m² | - |
| 1777562801 | 16.11° C | 48% | 1020.7 hPa | 0 mm | - | 524 W/m² | - |
| 1777562499 | 15.56° C | 49% | 1020.6 hPa | 0 mm | - | 351 W/m² | - |
| 1777562197 | 16.11° C | 53% | 1020.6 hPa | 0 mm | - | 220 W/m² | - |
| 1777561895 | 16.11° C | 51% | 1020.4 hPa | 0 mm | - | 147 W/m² | - |
| 1777561591 | 15.56° C | 53% | 1020.5 hPa | 0 mm | - | 127 W/m² | - |
| 1777561287 | 15° C | 54% | 1020.6 hPa | 0 mm | - | 123 W/m² | - |
| 1777560986 | 15° C | 63% | 1020.5 hPa | 0 mm | - | 111 W/m² | - |
| 1777560682 | 15° C | 59% | 1020.4 hPa | 0 mm | - | 100 W/m² | - |
| 1777560380 | 15° C | 61% | 1020.6 hPa | 0 mm | - | 94 W/m² | - |
| 1777560078 | 15° C | 61% | 1020.7 hPa | 0 mm | - | 88 W/m² | - |
| 1777559774 | 15° C | 62% | 1020.4 hPa | 0 mm | - | 83 W/m² | - |
| 1777559471 | 15.56° C | 61% | 1020.5 hPa | 0 mm | - | 79 W/m² | - |
| 1777559168 | 14.44° C | 64% | 1020.6 hPa | 0 mm | - | 75 W/m² | - |
| 1777558868 | 14.44° C | 65% | 1020.7 hPa | 0 mm | - | 70 W/m² | - |
| 1777558563 | 14.44° C | 66% | 1020.3 hPa | 0 mm | - | 66 W/m² | - |
| 1777558259 | 14.44° C | 64% | 1020.5 hPa | 0 mm | - | 64 W/m² | - |
| 1777557956 | 13.89° C | 68% | 1020.4 hPa | 0 mm | - | 61 W/m² | - |
| 1777557653 | 14.44° C | 63% | 1020.7 hPa | 0 mm | - | 58 W/m² | - |
| 1777557349 | 14.44° C | 65% | 1020.7 hPa | 0 mm | - | 57 W/m² | - |
| 1777557045 | 14.44° C | 66% | 1020.5 hPa | 0 mm | - | 87 W/m² | - |
| 1777556741 | 15.56° C | 62% | 1020.7 hPa | 0 mm | - | 53 W/m² | - |
| 1777556437 | 14.44° C | 66% | 1020.4 hPa | 0 mm | - | 52 W/m² | - |
| 1777556132 | 13.89° C | 70% | 1020.5 hPa | 0 mm | - | 51 W/m² | - |
* Rain latest hour (hover to see other rain measurements)
** Current wind speed in m/s (hover to see current wind gust speed)